Temp
30 30 30 30 30 31 31 32 33 33 35 35 34 35 35 35 36 35 35 35 35 35 35 35 35 34 34 34 35 34 35 35 36 37 36 35 34 34 34 34 33 33
29 29 30 29 29 30 31 31 32 32 33 34 34 35 35 35 35 35 35 35 35 34 34 34 34 35 34 33 34 33 33 33 33 35 34 34 34 34 33 34 34 34
28 28 28 27 27 28 29 30 31 32 33 34 34 34 34 35 35 35 34 33 32 31 31 33 34 34 33 33 33 32 32 32 33 33 33 33 33 33 34 34 34 34
27 27 27 27 28 28 28 28 28 30 32 32 33 34 34 34 34 34 34 34 32 32 32 31 32 32 33 33 32 32 32 31 32 33 33 33 33 33 33 33 33 33
26 26 27 28 28 27 27 27 27 29 30 32 33 34 34 34 34 33 32 32 32 32 31 31 31 31 32 33 32 31 31 31 32 33 33 33 33 33 33 33 33 33
26 27 29 28 27 26 26 26 28 29 30 31 31 32 33 33 33 32 32 32 32 31 31 30 30 31 31 33 33 31 31 30 31 31 32 32 33 33 33 33 33 33
26 27 27 26 25 26 26 27 28 30 31 31 31 30 31 32 33 32 32 32 32 32 31 30 30 30 31 32 32 32 31 31 30 30 31 32 33 33 33 33 33 33
26 26 25 24 24 24 25 27 28 29 31 31 30 30 31 31 32 32 32 32 31 31 31 31 29 29 30 30 31 31 32 33 32 31 31 31 32 32 33 33 33 33
26 24 23 22 22 23 25 27 28 29 30 30 30 30 32 32 32 32 32 32 32 32 32 32 31 30 30 29 29 30 31 32 32 32 32 32 31 31 32 33 32 32
23 22 21 21 22 23 26 27 26 27 29 30 30 31 31 32 33 33 33 32 31 31 31 31 31 30 29 29 30 30 31 32 31 31 32 32 31 31 32 33 32 32
20 21 21 22 22 23 24 24 24 25 27 28 30 30 30 31 32 32 31 30 30 30 30 31 31 31 31 30 29 30 32 32 32 31 32 32 32 32 33 32 32 32
20 20 19 19 20 20 21 22 23 24 26 27 28 29 29 30 30 30 30 29 29 29 29 30 31 31 31 31 31 30 30 31 32 32 32 32 33 33 32 32 33 33
19 18 18 18 18 19 20 21 22 23 25 26 28 28 28 28 28 28 28 28 28 28 29 29 30 30 31 31 31 30 29 28 29 31 32 32 32 32 31 31 33 33
17 17 17 17 18 18 19 21 22 24 25 26 26 26 27 27 27 26 27 27 27 28 29 30 30 30 31 31 31 31 31 31 30 30 30 31 32 32 32 32 32 32
15 16 17 18 18 19 19 21 23 23 23 23 24 24 25 25 25 25 25 25 27 27 28 29 30 30 31 32 31 32 32 32 32 31 30 30 30 31 32 32 32 32
15 16 17 18 19 19 19 20 20 21 21 21 21 21 22 23 24 24 24 24 26 27 28 29 30 31 33 34 35 33 32 32 31 30 30 30 29 29 30 31 31 32
14 15 16 16 17 17 17 17 18 19 20 19 19 20 20 20 22 21 22 24 25 27 27 29 30 31 34 35 36 36 34 32 31 31 30 30 30 29 29 29 30 31
14 15 15 15 15 15 16 17 18 18 17 17 17 18 20 22 21 21 22 23 25 26 27 29 30 32 34 35 36 36 35 33 32 31 32 31 31 31 31 31 31 30
14 14 14 14 15 15 15 16 16 16 16 16 16 18 19 20 21 21 22 23 25 26 27 29 30 33 35 35 36 36 36 35 33 32 31 31 31 31 32 32 32 31
13 13 13 13 14 14 14 15 14 14 15 16 17 17 18 19 20 21 22 23 25 27 28 29 30 33 35 35 35 35 35 35 33 32 31 31 31 32 32 32 32 32
12 12 12 12 13 13 13 13 13 13 14 15 16 16 17 18 19 20 22 24 26 28 29 30 31 33 34 35 35 35 35 35 33 32 31 30 30 31 32 32 32 32
12 11 11 11 12 12 11 12 12 13 13 15 15 16 18 19 20 22 23 26 29 30 29 29 30 33 34 35 36 36 36 33 30 29 29 29 29 30 31 32 32 32
11 11 10 10 11 10 10 11 12 12 13 15 14 16 17 18 19 21 24 25 27 29 29 28 27 30 33 35 36 36 35 32 32 31 30 30 30 31 32 32 32 32
11 10 10 9 10 10 10 11 12 13 13 15 14 15 16 18 20 21 24 26 28 28 28 27 27 29 33 34 35 36 35 32 31 31 30 31 31 32 32 32 32 33
11 10 10 9 9 10 11 11 12 12 13 14 15 16 17 18 20 21 23 26 28 29 31 31 30 31 33 35 35 35 34 32 32 31 30 30 30 31 32 32 32 32
10 10 10 10 10 10 11 11 12 13 13 14 15 16 17 18 20 21 23 26 29 30 30 30 30 31 32 34 34 34 34 32 31 30 29 29 30 30 30 30 31 31
MSLP
1018.18 1018.02 1017.74 1017.42 1017.06 1016.58 1015.90 1015.38 1014.82 1014.38 1013.78 1013.42 1013.22 1013.02 1012.86 1012.58 1012.42 1012.34 1012.18 1012.02 1011.86 1011.74 1011.58 1011.50 1011.46 1011.50 1011.58 1011.42 1011.18 1011.06 1010.98 1011.02 1011.14 1011.26 1011.42 1011.54 1011.62 1011.66 1011.74 1011.90 1012.10 1012.26
1017.82 1017.62 1017.34 1017.10 1016.66 1016.22 1015.74 1015.30 1014.70 1014.22 1013.54 1013.14 1012.90 1012.70 1012.50 1012.30 1012.06 1011.94 1011.78 1011.62 1011.42 1011.30 1011.14 1011.14 1011.10 1011.06 1011.10 1011.14 1011.02 1010.74 1010.70 1010.82 1010.94 1011.06 1011.30 1011.34 1011.30 1011.34 1011.34 1011.46 1011.62 1011.90
1017.50 1017.34 1017.14 1016.78 1016.26 1015.78 1015.42 1014.98 1014.62 1014.02 1013.34 1012.82 1012.54 1012.34 1012.18 1011.98 1011.70 1011.54 1011.38 1011.26 1011.06 1010.86 1010.74 1010.74 1010.78 1010.78 1010.78 1010.82 1010.70 1010.66 1010.58 1010.50 1010.54 1010.62 1010.90 1011.10 1011.14 1011.10 1011.06 1011.14 1011.26 1011.46
1017.42 1017.34 1016.86 1016.26 1015.74 1015.38 1015.18 1014.94 1014.50 1013.82 1013.02 1012.46 1012.18 1011.94 1011.74 1011.58 1011.42 1011.18 1010.94 1010.78 1010.62 1010.38 1010.30 1010.30 1010.30 1010.26 1010.30 1010.30 1010.50 1010.74 1010.66 1010.50 1010.30 1010.34 1010.54 1010.70 1010.86 1010.90 1010.82 1010.86 1010.98 1011.10
1017.46 1016.98 1016.30 1015.66 1015.42 1015.30 1015.06 1014.70 1014.18 1013.54 1012.74 1012.06 1011.70 1011.46 1011.26 1011.10 1010.90 1010.70 1010.50 1010.30 1010.14 1009.94 1009.86 1009.82 1009.86 1009.90 1009.90 1009.94 1010.06 1010.22 1010.18 1010.18 1010.02 1010.10 1010.30 1010.42 1010.46 1010.62 1010.62 1010.66 1010.70 1010.78
1017.14 1016.66 1015.86 1015.54 1015.30 1015.06 1014.74 1014.30 1013.74 1013.14 1012.30 1011.58 1011.26 1011.06 1010.78 1010.58 1010.42 1010.34 1010.22 1010.02 1009.82 1009.62 1009.46 1009.42 1009.42 1009.38 1009.46 1009.50 1009.58 1009.78 1009.90 1009.94 1009.82 1009.82 1009.98 1010.10 1010.10 1010.22 1010.38 1010.42 1010.46 1010.50
1016.62 1015.94 1015.66 1015.42 1015.14 1014.90 1014.54 1013.86 1013.26 1012.58 1011.86 1011.38 1011.06 1010.74 1010.46 1010.22 1010.06 1009.86 1009.70 1009.54 1009.38 1009.26 1009.18 1009.18 1009.14 1009.14 1009.14 1009.14 1009.18 1009.26 1009.42 1009.54 1009.50 1009.46 1009.54 1009.66 1009.78 1009.90 1010.06 1010.18 1010.22 1010.18
1015.94 1015.54 1015.42 1015.22 1014.90 1014.50 1014.02 1013.38 1012.70 1012.14 1011.54 1011.06 1010.74 1010.38 1010.10 1009.82 1009.58 1009.42 1009.26 1009.22 1009.02 1008.82 1008.74 1008.78 1008.82 1008.78 1008.74 1008.74 1008.78 1008.86 1008.94 1009.06 1009.10 1009.02 1009.10 1009.22 1009.34 1009.58 1009.66 1009.82 1009.94 1009.94
1015.50 1015.34 1015.30 1015.06 1014.66 1013.98 1013.38 1012.70 1012.22 1011.94 1011.50 1010.98 1010.54 1010.14 1009.70 1009.38 1009.10 1008.98 1008.86 1008.74 1008.66 1008.42 1008.30 1008.22 1008.18 1008.22 1008.30 1008.34 1008.38 1008.42 1008.50 1008.62 1008.66 1008.66 1008.66 1008.74 1008.90 1009.06 1009.26 1009.46 1009.62 1009.66
1015.58 1015.42 1015.22 1014.78 1014.22 1013.46 1012.74 1012.38 1012.26 1011.94 1011.46 1010.90 1010.38 1009.94 1009.50 1009.06 1008.78 1008.54 1008.38 1008.26 1008.18 1008.14 1007.98 1007.98 1008.02 1007.94 1007.90 1007.94 1007.94 1008.02 1008.06 1008.14 1008.38 1008.42 1008.22 1008.14 1008.26 1008.50 1008.78 1009.10 1009.30 1009.38
1015.66 1015.30 1014.78 1014.42 1014.10 1013.62 1012.98 1012.58 1012.26 1011.94 1011.38 1010.78 1010.26 1009.86 1009.50 1009.10 1008.70 1008.46 1008.26 1008.10 1008.02 1007.90 1007.78 1007.74 1007.66 1007.62 1007.54 1007.54 1007.58 1007.58 1007.58 1007.66 1007.86 1008.06 1008.06 1007.98 1007.94 1008.02 1008.18 1008.54 1008.86 1008.98
1015.38 1015.14 1015.06 1014.74 1014.34 1013.86 1013.26 1012.70 1012.30 1011.78 1011.22 1010.58 1010.14 1009.70 1009.42 1009.10 1008.82 1008.50 1008.26 1008.06 1007.90 1007.78 1007.62 1007.46 1007.34 1007.26 1007.22 1007.18 1007.18 1007.22 1007.26 1007.30 1007.38 1007.50 1007.66 1007.82 1007.78 1007.70 1007.82 1007.94 1008.30 1008.58
1015.54 1015.46 1015.26 1014.90 1014.38 1013.82 1013.22 1012.70 1012.10 1011.50 1010.90 1010.42 1010.02 1009.70 1009.34 1008.98 1008.78 1008.58 1008.30 1008.10 1007.86 1007.70 1007.50 1007.26 1007.06 1006.94 1006.86 1006.78 1006.78 1006.78 1006.86 1006.94 1007.06 1007.10 1007.22 1007.42 1007.58 1007.58 1007.58 1007.58 1007.74 1007.98
1016.02 1015.74 1015.34 1014.78 1014.18 1013.58 1012.94 1012.34 1011.74 1011.02 1010.62 1010.34 1009.98 1009.58 1009.26 1009.06 1008.86 1008.66 1008.34 1008.06 1007.74 1007.46 1007.18 1006.94 1006.70 1006.54 1006.42 1006.38 1006.34 1006.34 1006.38 1006.42 1006.54 1006.70 1006.86 1007.02 1007.18 1007.26 1007.22 1007.10 1007.22 1007.54
1016.18 1015.74 1015.10 1014.38 1013.74 1013.14 1012.62 1011.98 1011.38 1011.06 1010.70 1010.38 1010.02 1009.74 1009.50 1009.30 1009.06 1008.82 1008.42 1007.94 1007.50 1007.18 1006.94 1006.66 1006.38 1006.10 1005.98 1005.94 1005.94 1005.94 1005.94 1005.94 1005.98 1006.14 1006.30 1006.50 1006.66 1006.82 1006.94 1007.02 1006.98 1006.98
1016.06 1015.50 1014.82 1014.10 1013.50 1013.10 1012.66 1012.18 1011.70 1011.18 1010.74 1010.38 1010.10 1009.82 1009.50 1009.14 1008.78 1008.42 1008.14 1007.78 1007.38 1006.94 1006.66 1006.38 1006.02 1005.66 1005.46 1005.38 1005.34 1005.42 1005.54 1005.54 1005.58 1005.74 1005.82 1005.94 1006.14 1006.34 1006.54 1006.66 1006.78 1006.86
1015.86 1015.22 1014.70 1014.26 1013.82 1013.34 1012.90 1012.42 1011.86 1011.34 1010.94 1010.58 1010.18 1009.78 1009.30 1008.74 1008.30 1007.94 1007.62 1007.26 1006.94 1006.62 1006.26 1005.90 1005.50 1005.14 1004.90 1004.78 1004.70 1004.90 1004.98 1005.14 1005.26 1005.34 1005.46 1005.62 1005.74 1005.94 1006.14 1006.30 1006.34 1006.46
1015.66 1015.18 1014.74 1014.26 1013.86 1013.42 1013.02 1012.50 1011.94 1011.50 1011.10 1010.66 1010.18 1009.58 1008.90 1008.38 1007.94 1007.54 1007.18 1006.78 1006.46 1006.14 1005.82 1005.34 1004.90 1004.62 1004.50 1004.38 1004.26 1004.34 1004.46 1004.70 1004.86 1004.94 1005.02 1005.14 1005.30 1005.46 1005.58 1005.74 1005.86 1006.06
1015.54 1015.10 1014.62 1014.18 1013.78 1013.42 1012.98 1012.46 1011.94 1011.50 1011.10 1010.54 1009.98 1009.42 1008.82 1008.22 1007.66 1007.26 1006.82 1006.34 1005.94 1005.54 1005.10 1004.66 1004.38 1004.06 1003.94 1003.86 1003.82 1003.78 1003.90 1004.14 1004.38 1004.54 1004.66 1004.78 1004.94 1005.06 1005.14 1005.22 1005.38 1005.54
1015.42 1014.98 1014.58 1014.18 1013.74 1013.30 1012.82 1012.30 1011.90 1011.42 1010.94 1010.42 1009.78 1009.14 1008.54 1007.82 1007.26 1006.86 1006.30 1005.82 1005.34 1004.90 1004.50 1004.14 1003.90 1003.70 1003.54 1003.42 1003.38 1003.38 1003.42 1003.62 1003.86 1003.98 1004.18 1004.30 1004.42 1004.54 1004.66 1004.78 1004.90 1005.10
1015.30 1014.86 1014.50 1014.10 1013.66 1013.14 1012.62 1012.14 1011.66 1011.06 1010.54 1010.10 1009.54 1008.94 1008.38 1007.70 1007.10 1006.50 1005.90 1005.30 1004.70 1004.22 1003.86 1003.54 1003.34 1003.18 1003.14 1003.06 1003.02 1002.94 1003.02 1003.14 1003.42 1003.58 1003.74 1003.90 1004.02 1004.10 1004.18 1004.30 1004.42 1004.62
1015.14 1014.74 1014.34 1013.98 1013.50 1012.98 1012.50 1011.90 1011.30 1010.86 1010.30 1009.70 1009.10 1008.46 1007.86 1007.34 1006.70 1006.10 1005.42 1004.66 1003.86 1003.42 1003.30 1003.22 1003.02 1002.86 1002.78 1002.62 1002.58 1002.66 1002.70 1002.78 1003.02 1003.22 1003.38 1003.50 1003.62 1003.74 1003.82 1003.86 1003.98 1004.10
1015.06 1014.66 1014.18 1013.78 1013.34 1012.78 1012.22 1011.70 1011.14 1010.42 1009.82 1009.42 1008.82 1008.10 1007.50 1006.90 1006.38 1005.74 1005.10 1004.50 1003.82 1003.26 1003.06 1002.98 1002.78 1002.62 1002.54 1002.34 1002.30 1002.26 1002.30 1002.42 1002.58 1002.74 1002.90 1003.02 1003.10 1003.18 1003.30 1003.38 1003.46 1003.62
1014.90 1014.54 1014.14 1013.58 1013.06 1012.58 1011.98 1011.42 1010.86 1010.34 1009.78 1009.18 1008.74 1007.86 1007.18 1006.54 1005.98 1005.34 1004.66 1004.06 1003.50 1003.02 1002.78 1002.70 1002.50 1002.34 1002.26 1002.18 1002.02 1001.90 1001.86 1001.98 1002.14 1002.22 1002.26 1002.34 1002.42 1002.50 1002.58 1002.74 1002.90 1003.06
1014.66 1014.26 1013.90 1013.42 1012.86 1012.30 1011.78 1011.22 1010.70 1010.06 1009.34 1008.82 1008.30 1007.74 1006.98 1006.22 1005.62 1005.02 1004.30 1003.58 1003.02 1002.62 1002.34 1002.26 1002.06 1001.86 1001.70 1001.62 1001.62 1001.58 1001.58 1001.66 1001.78 1001.82 1001.78 1001.74 1001.78 1001.78 1001.90 1002.02 1002.22 1002.42
1014.54 1014.14 1013.58 1013.14 1012.58 1011.98 1011.42 1010.90 1010.30 1009.74 1009.10 1008.50 1007.82 1007.34 1006.66 1005.86 1005.22 1004.62 1003.94 1003.14 1002.54 1002.26 1002.10 1001.94 1001.90 1001.70 1001.58 1001.54 1001.50 1001.42 1001.38 1001.42 1001.46 1001.50 1001.46 1001.38 1001.42 1001.42 1001.50 1001.54 1001.66 1001.82
Wind_Speed
11 11 12 11 13 13 12 14 12 13 12 10 9 9 10 10 10 10 11 10 9 10 9 9 8 9 9 9 8 7 7 6 6 6 8 8 8 10 10 9 9 8
12 13 13 15 14 12 13 12 14 14 14 12 10 11 11 10 11 11 11 12 11 11 10 8 9 9 10 9 10 10 8 6 7 5 6 8 8 9 10 11 10 9
13 14 17 17 14 15 14 13 13 14 14 12 12 11 11 11 11 10 10 10 9 8 8 7 7 8 8 9 10 8 7 8 8 6 7 7 7 8 9 9 9 11
14 18 18 16 15 11 11 12 15 14 14 11 10 11 10 10 11 12 13 12 9 8 8 7 9 9 8 9 8 7 7 7 7 6 6 6 7 7 8 7 8 8
17 19 18 14 8 11 12 13 15 15 16 14 12 11 11 11 11 11 9 9 9 9 8 8 7 7 7 7 7 8 9 9 8 7 6 7 7 7 7 7 8 9
16 17 14 10 11 11 14 13 15 16 16 14 11 10 10 11 10 8 9 10 9 9 8 7 7 7 7 7 7 7 8 7 7 7 7 8 8 7 6 7 8 9
16 15 11 11 12 15 15 16 14 14 13 11 10 11 10 10 11 12 12 12 10 8 8 7 6 6 6 7 7 8 8 8 8 8 9 8 7 8 8 8 8 9
17 11 10 12 16 16 17 15 13 11 13 11 11 11 10 10 10 10 9 8 8 8 7 6 6 6 7 7 8 8 8 7 8 8 9 8 7 8 8 8 8 10
14 11 12 17 17 16 16 14 11 12 12 12 12 11 11 10 10 9 10 11 11 10 10 9 9 8 7 6 7 8 8 8 9 9 10 10 9 8 8 7 8 9
14 13 16 16 16 15 14 11 12 11 11 13 10 10 11 10 10 11 11 10 9 9 8 7 8 7 7 6 7 7 7 8 8 9 10 11 10 9 7 7 8 8
14 15 15 15 17 17 17 15 12 12 13 11 10 10 10 10 9 8 7 7 7 8 8 9 9 9 8 7 6 6 8 8 8 8 9 9 9 9 9 7 7 8
14 13 15 18 17 16 16 15 14 15 14 12 10 11 11 11 10 8 6 6 6 6 7 8 9 9 9 9 9 7 7 8 8 8 8 9 9 9 8 8 9 9
15 15 16 18 17 17 15 13 15 14 13 10 9 10 10 10 9 9 8 7 7 7 7 8 9 8 9 10 10 8 7 7 7 7 7 7 7 8 8 8 9 10
17 15 16 16 15 14 13 14 14 12 10 11 11 11 10 10 11 12 11 9 9 8 9 10 9 9 10 11 10 9 8 8 7 7 7 7 7 8 9 9 10 9
15 15 15 17 16 15 15 14 13 11 11 10 10 9 9 9 10 11 12 13 12 11 11 11 10 10 9 10 10 10 10 9 9 9 9 8 8 8 7 7 8 10
16 15 15 15 15 16 15 15 14 13 11 12 12 11 9 9 10 12 11 11 12 11 11 10 10 9 11 18 17 11 9 9 8 9 9 8 9 8 7 8 8 7
15 15 15 16 15 15 15 15 15 14 14 13 13 12 14 13 12 12 11 11 11 10 11 11 11 10 18 20 22 24 14 9 9 9 8 8 8 9 9 8 8 9
15 15 16 15 15 15 15 15 15 15 15 14 12 13 12 10 10 11 11 11 10 11 12 12 11 13 18 19 22 22 18 11 9 8 8 9 9 10 9 9 9 8
15 15 16 15 15 15 15 15 15 15 15 14 15 14 13 14 13 11 12 11 11 11 12 11 10 15 18 20 20 21 20 17 9 9 9 9 9 10 11 11 9 9
15 15 16 16 16 16 16 16 15 15 15 14 13 13 13 12 13 13 12 12 12 12 11 10 10 14 18 20 20 21 21 18 8 9 9 10 10 11 10 11 11 9
15 16 16 15 16 16 16 16 16 15 15 13 13 13 13 13 13 13 12 13 13 13 11 10 9 15 17 18 18 19 18 15 7 7 7 8 9 10 10 10 10 10
16 17 16 14 15 16 16 16 16 15 15 14 13 13 12 11 12 11 12 13 11 8 6 7 8 14 16 17 17 16 17 9 6 7 8 8 9 9 9 9 10 11
17 16 14 15 16 16 15 15 15 16 14 12 13 12 12 12 11 11 11 11 12 10 6 6 7 10 14 16 17 18 14 8 7 7 8 9 9 9 10 10 10 11
16 15 16 16 14 14 16 15 15 13 13 12 12 13 13 12 11 11 11 10 10 9 7 7 7 9 13 14 17 18 15 9 8 8 9 10 10 11 10 10 11 16
13 13 12 14 15 15 14 15 14 13 14 12 11 11 12 12 11 10 11 11 10 9 11 11 9 9 13 15 16 17 14 8 7 7 9 9 9 9 10 10 10 13
13 15 15 14 15 15 14 13 12 13 13 13 12 10 11 11 10 10 11 11 10 9 8 8 8 8 7 10 9 10 10 6 4 5 6 7 7 8 8 9 10 10
Wind_Direction
322 320 316 312 310 303 299 298 296 292 285 280 277 281 279 275 272 265 263 259 252 247 245 247 251 256 266 257 240 228 225 226 231 235 238 232 226 222 220 212 208 207
324 320 314 310 300 296 295 295 294 290 287 283 280 281 278 274 269 266 265 258 250 247 247 244 245 248 245 245 242 230 220 216 226 214 235 236 232 227 225 219 214 208
325 318 312 303 296 293 293 299 301 295 288 281 281 282 280 276 272 262 255 251 244 238 234 233 240 244 241 240 243 239 227 224 228 221 216 233 237 232 227 223 219 211
325 315 305 296 291 295 307 304 299 291 284 279 277 277 273 273 269 262 255 245 239 239 237 230 229 232 234 235 227 239 238 237 230 222 223 230 231 230 230 220 220 218
321 311 301 292 302 308 306 299 295 292 286 277 274 273 273 272 267 259 250 246 244 243 242 241 229 226 219 223 227 226 224 221 218 211 218 235 233 227 229 219 214 217
314 301 295 309 312 312 307 295 291 291 288 275 271 271 269 267 265 270 272 267 254 239 232 231 225 226 219 220 216 221 227 225 218 200 211 225 236 227 230 223 216 216
303 296 308 309 312 310 302 294 285 289 293 288 281 274 270 270 267 262 260 258 253 249 245 237 232 229 222 219 219 224 225 226 224 203 205 214 222 233 229 229 223 220
296 297 307 314 310 304 292 289 283 287 298 296 288 278 269 265 265 260 257 252 252 247 245 238 231 230 224 213 218 223 230 228 232 214 209 214 211 225 229 226 225 225
298 309 318 309 298 292 287 286 300 313 312 308 305 296 282 272 266 261 252 252 251 247 243 243 239 239 231 218 218 217 222 230 228 216 211 212 210 216 223 224 228 228
313 316 311 297 294 290 291 313 318 312 309 303 300 305 301 289 277 268 260 252 249 248 247 249 255 248 241 226 223 219 216 224 232 228 218 213 207 204 208 216 226 230
309 303 297 310 319 320 318 318 317 312 304 297 302 304 306 304 297 285 271 258 247 247 244 241 241 243 245 242 230 221 220 222 223 225 229 225 214 205 194 203 225 234
305 320 326 321 317 313 309 311 309 305 302 299 301 304 306 307 302 299 291 279 266 257 252 249 246 243 241 244 241 225 217 215 215 216 222 230 224 212 203 196 216 234
327 329 325 317 308 304 303 298 297 294 292 301 306 302 303 309 312 309 303 294 287 279 269 260 256 247 244 242 238 229 213 204 206 212 218 219 225 222 209 205 210 217
318 317 309 301 297 294 292 292 288 291 310 314 307 305 315 322 321 316 308 299 292 290 286 281 270 262 250 243 238 232 228 227 217 212 216 222 230 232 228 213 205 209
314 311 304 298 295 291 293 296 310 320 315 308 308 314 313 307 302 299 299 297 294 289 287 282 274 261 251 240 235 231 226 224 223 221 216 219 224 227 227 231 220 204
312 309 307 312 321 323 322 322 320 317 314 312 314 309 299 289 286 288 285 284 283 280 277 273 265 258 244 239 232 226 221 222 219 221 222 224 229 232 224 213 213 214
314 313 316 319 319 319 320 318 316 315 313 310 305 300 296 294 292 290 286 282 276 272 271 270 263 251 245 239 239 236 229 218 220 224 224 226 228 226 224 214 210 209
315 316 316 315 315 314 315 314 312 310 307 303 299 296 293 290 286 284 281 276 272 265 262 262 260 251 243 241 241 239 231 223 222 225 224 225 226 227 226 221 213 207
316 315 315 314 315 314 311 310 309 307 304 300 298 295 290 289 285 284 280 273 263 258 257 253 248 252 249 243 240 237 233 232 225 220 223 224 223 223 224 222 218 211
316 316 315 314 313 311 309 308 306 302 300 297 293 291 287 284 284 282 280 275 267 263 261 257 249 249 247 244 240 239 240 241 227 220 217 219 221 219 219 219 217 215
316 315 313 313 312 310 309 306 303 299 296 296 293 289 287 286 288 286 283 277 269 260 254 251 248 248 248 249 252 253 252 248 235 231 225 225 224 223 221 220 214 214
318 315 314 312 311 308 305 302 302 302 300 298 294 289 284 281 281 278 280 285 286 275 255 253 255 251 245 245 245 248 252 249 231 219 223 224 225 222 223 220 220 216
316 314 313 310 304 300 300 302 303 300 297 296 293 291 290 288 284 280 281 285 287 287 271 258 253 245 241 245 250 252 252 243 237 232 225 221 222 222 220 223 222 220
313 314 309 304 304 302 301 299 298 300 300 299 292 292 290 285 284 284 284 283 279 277 269 263 262 246 242 241 247 251 249 241 230 231 229 225 224 219 219 219 222 222
309 303 301 302 301 302 302 301 298 295 293 289 287 285 284 285 280 276 281 283 276 273 277 275 269 269 265 261 259 258 258 255 247 234 237 232 226 221 213 216 216 220
312 307 302 302 303 301 298 295 294 295 296 294 284 279 278 278 276 269 268 274 272 275 274 269 261 261 275 288 297 295 287 274 243 242 243 238 231 229 224 219 217 215